Wind_Speed
71 72 73 75 74 74 73 73 72 72 71 67 64 62 60 59 58 54 52 52 49 46 45 44 42 42 42 42 40 41 43 47 50 52 52 52 51 54 58 54 48 35 35
78 75 76 78 79 77 74 71 70 70 68 66 61 60 58 57 54 47 45 44 40 38 39 37 38 37 36 37 37 37 41 44 47 48 48 48 46 48 51 55 53 48 41
79 78 77 79 78 75 70 71 68 64 62 59 54 54 50 51 46 41 38 34 34 35 35 32 32 31 31 32 33 33 35 40 42 45 44 44 43 44 43 43 45 44 47
83 80 76 73 68 66 61 58 55 54 53 54 51 47 46 45 39 31 30 31 33 32 32 32 31 30 29 27 31 30 32 35 35 40 39 38 38 38 41 40 44 50 53
72 67 60 61 57 54 52 51 50 49 48 51 47 47 43 39 37 29 28 30 31 30 30 31 31 31 31 30 30 30 30 31 32 31 34 34 35 36 45 45 48 54 55
59 56 54 51 47 47 45 44 45 42 44 46 43 47 41 39 34 32 29 30 32 33 32 32 35 34 33 33 31 32 31 31 29 21 20 28 30 36 54 48 56 56 59
51 49 45 44 44 45 44 43 42 41 43 41 42 42 40 38 37 34 32 33 35 36 36 38 38 38 38 34 32 33 33 31 29 22 24 22 28 39 58 52 58 58 62
38 41 40 39 37 38 40 41 40 40 40 41 42 39 40 39 39 36 37 36 37 38 39 40 37 36 37 38 35 34 35 34 30 26 23 21 26 41 64 55 54 63 63
34 35 36 37 36 35 33 36 39 40 37 38 39 39 38 39 41 40 38 38 38 40 41 38 34 33 34 34 33 33 34 34 28 27 19 20 28 38 56 60 55 55 57
37 37 39 40 38 37 38 38 38 40 39 36 38 39 39 41 42 42 41 41 41 41 38 35 34 31 32 31 33 34 34 33 29 26 20 20 26 38 49 69 56 54 53
39 40 40 41 44 44 42 42 40 40 40 40 37 37 41 43 42 42 43 42 41 38 34 33 33 30 32 32 33 35 34 33 30 28 24 20 25 35 42 52 59 60 60
45 44 45 45 45 45 44 46 46 41 39 38 38 40 39 39 41 42 42 41 37 33 33 33 30 30 32 33 33 34 36 34 33 29 23 24 21 30 40 42 47 55 54
52 52 52 50 49 48 47 46 49 50 48 44 42 41 40 40 40 41 41 39 37 35 35 36 35 35 33 33 36 36 36 36 34 29 24 24 18 25 30 44 44 48 49
47 49 50 49 50 52 50 49 48 50 53 53 51 48 48 47 46 45 45 44 42 41 40 40 38 37 35 33 35 35 37 35 33 29 28 25 21 30 35 28 37 45 45
54 54 52 51 52 51 50 51 53 53 56 58 56 52 52 52 52 50 51 51 47 45 44 43 43 41 39 36 35 34 36 35 31 29 29 25 21 33 44 35 35 42 45
59 59 57 56 57 54 55 54 56 59 59 61 63 61 57 55 56 55 53 52 52 50 48 46 45 45 42 38 36 38 37 35 32 28 30 28 22 35 43 44 40 44 47
62 63 63 64 64 62 62 60 59 60 61 64 67 67 66 63 58 57 53 52 49 48 48 44 46 47 47 42 37 39 37 35 32 29 27 27 23 23 48 48 49 49 46
67 66 67 69 67 67 67 66 65 65 66 66 72 72 70 69 65 62 57 56 53 53 53 49 47 48 49 47 40 41 38 36 33 32 30 25 22 15 28 49 55 53 51
69 71 71 72 72 71 72 71 70 71 69 69 74 77 75 74 74 69 66 63 62 59 59 57 55 50 49 48 47 43 39 37 36 35 33 24 25 18 20 24 31 46 60
71 72 73 73 73 75 75 75 74 73 72 71 71 77 79 78 79 76 74 69 69 64 64 62 61 57 54 52 49 46 43 39 39 36 35 28 29 26 23 25 26 36 41
64 64 68 73 73 74 75 77 77 77 76 76 74 75 75 75 81 80 78 77 72 70 69 68 66 64 60 54 51 49 47 43 42 41 36 29 26 27 20 23 28 33 37
75 69 70 67 71 71 73 72 75 74 77 79 77 78 77 77 77 79 77 75 71 69 67 65 68 67 65 56 53 45 51 46 45 46 40 34 28 25 23 24 28 30 34
84 81 78 80 72 76 78 76 75 74 72 77 83 83 82 80 76 74 72 73 67 60 63 61 57 59 61 53 48 46 46 48 45 45 43 38 34 30 26 26 25 29 32
89 92 88 88 87 85 86 83 83 79 78 74 77 80 80 81 80 74 71 60 57 54 60 60 51 51 45 38 38 44 44 45 43 42 42 39 38 35 32 29 29 30 30
98 94 96 96 93 92 90 92 92 91 88 84 81 78 79 83 80 74 65 64 48 54 59 57 50 47 48 40 39 43 46 44 46 45 39 42 39 38 36 34 32 29 28
97 100 101 100 99 97 94 94 94 93 91 89 88 85 82 84 77 67 59 53 46 49 51 48 52 48 50 44 38 41 41 42 47 48 45 44 40 41 41 41 39 31 29
Wind_Direction
281 282 283 286 286 286 287 287 286 288 288 287 286 286 285 285 284 286 287 289 292 293 294 292 291 291 291 289 284 278 274 269 270 268 264 259 255 248 249 253 247 234 241
281 281 280 281 283 285 285 285 286 286 286 285 284 283 282 280 282 283 284 289 292 293 292 292 293 294 292 289 287 282 276 274 270 268 266 262 258 252 248 246 243 236 230
282 283 282 281 282 284 284 284 284 285 281 280 277 278 274 276 278 279 284 291 291 290 291 291 292 293 294 296 292 287 283 277 274 271 268 263 254 248 244 235 234 216 229
285 287 286 284 282 284 284 283 279 279 276 277 277 274 274 275 276 278 287 289 289 291 292 292 292 291 293 296 298 297 288 285 282 276 272 262 251 241 221 211 213 217 225
286 288 288 289 287 286 284 280 278 278 271 274 272 270 273 274 276 273 284 287 289 292 293 294 296 293 292 297 303 303 301 299 288 283 278 264 247 226 213 211 211 220 226
288 287 288 286 282 279 278 276 276 273 271 273 267 273 267 273 273 277 279 284 286 290 295 296 295 296 298 299 303 303 307 307 310 294 268 264 242 220 204 208 214 224 229
288 287 283 280 277 274 273 272 274 271 268 269 267 268 269 271 271 275 274 282 283 288 295 295 293 293 295 301 304 302 304 308 320 292 282 259 234 213 203 215 221 225 230
285 288 287 284 279 276 274 272 272 272 269 269 268 264 268 269 273 275 274 277 284 291 298 295 299 298 295 296 299 301 306 305 316 314 290 257 232 218 208 216 224 226 231
283 281 281 284 285 283 278 276 274 268 271 274 273 269 272 272 274 277 277 280 286 293 295 299 299 298 298 297 298 302 307 307 313 319 300 262 228 225 213 212 222 227 235
275 277 276 276 277 278 280 278 274 272 270 268 272 273 272 272 274 277 279 284 288 290 294 298 299 298 296 298 301 303 309 315 319 319 307 282 236 227 215 215 220 228 233
275 273 272 271 273 276 277 277 275 274 272 271 267 265 269 270 273 275 277 281 284 287 289 296 300 303 299 301 301 303 309 314 320 328 316 292 243 228 225 222 225 232 233
275 275 274 273 271 270 271 273 274 271 274 275 273 271 265 265 266 269 272 274 276 281 286 293 296 303 309 307 302 301 305 312 317 320 317 316 255 232 222 221 227 235 242
278 278 275 277 278 277 275 270 271 272 268 267 271 272 270 268 270 273 273 275 278 281 286 290 291 297 304 312 309 299 301 306 310 311 319 323 274 219 217 226 231 238 242
277 279 281 280 280 277 277 276 276 276 274 269 265 262 265 268 272 273 273 274 277 281 282 287 290 294 298 306 310 300 300 305 308 309 318 325 287 221 210 225 235 239 241
277 277 278 278 277 276 275 273 274 276 278 278 274 268 262 261 265 270 275 275 274 274 279 281 284 288 292 297 304 303 302 302 305 307 314 317 285 222 216 220 234 234 235
275 277 276 275 274 275 273 271 269 271 274 273 275 276 271 266 264 265 267 267 270 271 274 275 276 281 285 289 295 299 299 299 299 305 311 317 296 224 218 217 228 233 236
270 271 273 272 271 272 271 269 267 266 267 269 268 268 269 268 266 264 262 262 264 265 267 270 271 275 278 283 288 292 295 295 292 300 306 308 305 241 223 227 231 237 242
271 270 270 271 272 272 272 270 268 267 267 265 266 265 266 265 264 264 261 260 259 262 265 265 265 269 273 276 279 283 291 290 285 297 305 300 303 287 241 237 237 239 243
272 273 272 272 271 272 272 270 269 271 270 266 265 266 266 265 264 263 262 262 262 264 266 265 265 265 268 270 272 274 283 286 282 290 298 293 285 298 287 265 254 249 244
274 276 278 275 273 273 273 271 270 267 266 263 262 264 264 264 265 265 265 263 263 262 263 263 264 265 265 264 267 269 272 279 278 282 294 283 284 280 285 280 263 260 252
280 276 274 271 272 272 271 269 268 267 267 266 263 263 266 265 268 265 265 264 265 264 263 264 265 267 265 262 265 264 269 271 274 278 284 282 281 282 282 278 274 265 259
278 277 274 273 271 273 270 268 269 269 266 266 267 267 266 266 266 268 266 265 266 268 266 265 263 263 263 261 261 262 265 265 269 272 276 277 277 274 284 286 282 269 259
279 279 277 273 270 266 270 271 267 264 268 268 267 265 266 266 267 269 269 267 267 266 267 263 261 261 258 261 262 261 261 265 270 267 268 275 279 277 281 288 284 281 259
278 276 274 273 271 272 272 271 272 268 268 269 264 263 266 267 267 268 270 270 270 268 263 261 259 258 248 246 265 255 255 261 265 262 265 268 278 278 278 284 287 288 277
277 274 272 274 271 268 267 269 271 267 271 268 268 267 263 262 263 268 270 271 266 262 257 258 257 255 239 235 244 248 248 249 257 256 260 269 273 277 276 281 280 289 290
274 275 274 270 266 266 266 266 266 268 268 269 270 270 269 269 268 268 271 272 258 257 260 260 258 248 233 235 239 237 237 241 247 255 252 260 271 276 280 275 276 279 282
Height
10848 10850 10845 10843 10842 10841 10837 10833 10830 10827 10824 10825 10824 10822 10820 10818 10816 10813 10810 10807 10806 10804 10803 10801 10799 10798 10796 10794 10793 10792 10790 10788 10788 10789 10791 10793 10797 10801 10803 10806 10811 10814 10815
10836 10837 10835 10832 10830 10830 10827 10824 10821 10818 10814 10813 10814 10813 10811 10808 10807 10805 10803 10801 10799 10797 10796 10794 10793 10790 10789 10787 10786 10785 10782 10780 10779 10779 10780 10782 10785 10789 10794 10798 10804 10807 10807
10822 10822 10821 10820 10818 10818 10815 10812 10810 10807 10804 10803 10804 10803 10802 10800 10800 10798 10796 10795 10793 10791 10790 10788 10787 10785 10783 10780 10778 10777 10775 10772 10770 10770 10771 10773 10775 10778 10784 10789 10795 10798 10798
10810 10809 10805 10805 10805 10805 10804 10801 10800 10797 10796 10795 10795 10795 10795 10793 10794 10793 10792 10790 10788 10786 10784 10782 10781 10779 10777 10775 10772 10771 10768 10767 10765 10763 10762 10763 10765 10771 10777 10782 10786 10786 10784
10796 10796 10794 10793 10793 10793 10793 10792 10790 10788 10787 10787 10787 10787 10787 10788 10788 10788 10787 10784 10782 10780 10779 10777 10775 10773 10771 10769 10767 10764 10762 10760 10758 10757 10755 10754 10758 10764 10771 10774 10777 10775 10773
10787 10787 10784 10783 10782 10783 10782 10782 10781 10780 10780 10779 10780 10780 10780 10781 10782 10781 10781 10779 10777 10775 10774 10772 10770 10768 10765 10764 10762 10759 10757 10754 10752 10754 10747 10748 10750 10756 10761 10764 10767 10765 10765
10777 10777 10777 10775 10774 10775 10775 10773 10773 10772 10772 10771 10772 10773 10774 10774 10775 10774 10773 10772 10771 10769 10768 10766 10764 10762 10760 10758 10757 10753 10750 10748 10747 10743 10742 10741 10742 10747 10752 10754 10755 10756 10756
10772 10769 10768 10767 10768 10768 10767 10766 10766 10765 10765 10765 10765 10766 10767 10768 10768 10767 10766 10765 10764 10763 10761 10759 10757 10756 10753 10752 10750 10747 10744 10742 10741 10738 10733 10734 10734 10738 10743 10744 10745 10746 10748
10767 10765 10762 10760 10759 10760 10760 10759 10758 10758 10758 10759 10760 10761 10761 10761 10761 10760 10759 10759 10758 10756 10754 10752 10751 10750 10748 10746 10744 10742 10739 10736 10735 10733 10728 10728 10729 10730 10734 10735 10739 10740 10744
10760 10759 10757 10756 10754 10754 10753 10752 10751 10750 10751 10752 10753 10754 10752 10753 10753 10753 10752 10751 10750 10749 10747 10746 10745 10744 10742 10741 10738 10736 10734 10730 10729 10726 10723 10720 10722 10724 10726 10730 10733 10735 10739
10753 10752 10751 10750 10749 10748 10747 10745 10745 10744 10743 10744 10745 10745 10745 10745 10744 10743 10743 10743 10742 10742 10741 10740 10739 10738 10736 10735 10733 10729 10728 10725 10723 10721 10719 10715 10715 10718 10721 10725 10727 10727 10729
10744 10744 10742 10741 10741 10740 10740 10738 10736 10738 10737 10738 10738 10737 10736 10735 10735 10735 10734 10735 10735 10735 10735 10734 10734 10732 10731 10729 10727 10724 10722 10721 10719 10717 10713 10710 10709 10712 10716 10717 10719 10721 10722
10733 10733 10731 10733 10732 10732 10732 10731 10727 10727 10728 10730 10730 10731 10729 10727 10726 10726 10725 10725 10727 10727 10727 10727 10727 10726 10724 10723 10721 10718 10716 10715 10714 10712 10709 10705 10704 10706 10708 10709 10711 10714 10717
10724 10722 10722 10722 10722 10721 10722 10721 10720 10717 10716 10717 10719 10721 10721 10720 10719 10719 10717 10718 10719 10720 10720 10719 10718 10719 10718 10718 10716 10713 10710 10709 10708 10706 10705 10702 10700 10701 10703 10704 10704 10706 10711
10712 10711 10711 10711 10710 10710 10710 10710 10710 10709 10706 10703 10704 10708 10711 10712 10712 10711 10710 10710 10710 10710 10711 10711 10710 10710 10711 10711 10710 10707 10705 10703 10702 10701 10698 10697 10694 10694 10696 10698 10696 10696 10699
10701 10699 10699 10699 10696 10697 10697 10698 10698 10698 10697 10695 10691 10692 10697 10700 10701 10701 10702 10701 10701 10701 10702 10703 10702 10701 10702 10704 10704 10701 10699 10698 10696 10696 10693 10691 10689 10689 10690 10690 10689 10688 10691
10689 10688 10687 10685 10683 10684 10681 10682 10683 10683 10684 10683 10679 10678 10679 10683 10687 10687 10689 10690 10691 10692 10692 10692 10693 10692 10692 10695 10697 10694 10693 10693 10692 10691 10689 10687 10684 10683 10685 10686 10682 10683 10685
10673 10674 10672 10670 10670 10669 10667 10667 10668 10668 10670 10671 10664 10664 10665 10667 10670 10673 10677 10678 10681 10681 10681 10682 10683 10683 10683 10685 10688 10687 10685 10685 10685 10685 10684 10683 10680 10678 10679 10679 10679 10678 10678
10659 10656 10657 10656 10653 10652 10650 10650 10651 10652 10653 10654 10654 10650 10653 10652 10652 10658 10662 10666 10668 10670 10670 10671 10673 10673 10674 10675 10677 10678 10678 10678 10677 10678 10678 10678 10676 10674 10673 10672 10671 10671 10672
10641 10639 10639 10638 10637 10635 10632 10632 10632 10632 10634 10636 10636 10635 10637 10638 10635 10640 10644 10651 10651 10659 10656 10657 10660 10661 10663 10663 10666 10670 10669 10670 10670 10671 10671 10671 10670 10669 10667 10666 10664 10663 10664
10621 10616 10619 10619 10618 10616 10614 10613 10612 10613 10614 10617 10620 10620 10621 10626 10619 10622 10627 10631 10637 10643 10644 10644 10646 10648 10651 10652 10656 10659 10659 10661 10661 10663 10665 10664 10664 10663 10661 10660 10659 10658 10657
10604 10603 10598 10598 10598 10596 10593 10593 10594 10594 10594 10597 10601 10603 10603 10604 10608 10605 10611 10615 10620 10622 10625 10630 10629 10633 10635 10639 10642 10649 10649 10651 10651 10653 10657 10657 10657 10656 10655 10653 10651 10651 10651
10582 10580 10579 10576 10577 10576 10574 10574 10574 10576 10578 10579 10582 10584 10584 10587 10590 10593 10594 10597 10602 10607 10609 10614 10613 10616 10621 10628 10630 10635 10639 10640 10642 10645 10648 10649 10650 10649 10649 10648 10646 10644 10643
10556 10553 10552 10551 10551 10551 10550 10553 10554 10555 10559 10562 10562 10564 10568 10571 10571 10576 10581 10586 10591 10592 10593 10598 10600 10604 10610 10615 10618 10623 10627 10629 10634 10635 10637 10640 10642 10641 10641 10640 10641 10639 10637
10524 10525 10524 10523 10524 10527 10527 10524 10524 10530 10532 10536 10539 10545 10553 10552 10556 10563 10569 10572 10575 10575 10576 10582 10588 10592 10597 10599 10603 10608 10615 10620 10623 10626 10627 10629 10633 10632 10632 10633 10634 10633 10631
10499 10492 10489 10492 10496 10498 10499 10498 10498 10504 10509 10512 10517 10521 10529 10531 10538 10547 10553 10557 10561 10565 10569 10575 10580 10581 10583 10587 10591 10595 10601 10606 10612 10616 10618 10621 10623 10622 10623 10624 10625 10626 10625